Location: Kosice
(48.7170°N, 21.2500°E)
Time: 01:48:04
(UTC+02:00)

ISS - Pass Details

Date: 26 March 2019
Orbit: 408 x 410 km, 51.6° (Epoch: 26 April)

Event Time Altitude Azimuth Distance (km) Brightness Sun altitude
Rises 20:59:35 0° 282° (WNW) 2,337 0.9 -28.2°
Reaches altitude 10° 21:01:43 10° 288° (WNW) 1,475 -0.2 -28.4°
Enters shadow 21:02:32 16° 292° (WNW) 1,159 -0.8 -28.5°
